EW4320 Weather Reports


Display with metric or nautical units.
time (UTC)temp
F
wind
direction
speed
MPH
gust
MPH
rain 1hr
in
rain 24hr
in
rain mn
in
humidity
%
barometer
mb
20260507090005 52 193 2.0 5.0 0.00 0.01 0.00 74 1015.4
20260507085505 52 171 1.0 5.0 0.00 0.01 0.00 74 1015.3
20260507085003 52 164 1.0 3.0 0.00 0.01 0.00 74 1015.3
20260507084504 53 206 2.0 5.0 0.00 0.01 0.00 74 1015.3
20260507084215 53 211 2.0 5.0 0.00 0.01 0.00 74 1015.5
20260507083713 53 198 3.0 6.0 0.00 0.01 0.00 76 1015.5
20260507083005 50 167 2.0 5.0 0.00 0.01 0.00 79 1015.5
20260507082504 50 155 1.0 5.0 0.00 0.01 0.00 79 1015.5
20260507082005 50 156 2.0 6.0 0.00 0.01 0.00 79 1015.5
20260507081505 50 169 2.0 6.0 0.00 0.01 0.00 80 1015.5
20260507081004 50 182 2.0 5.0 0.00 0.01 0.00 79 1015.5
20260507080503 50 155 2.0 5.0 0.00 0.01 0.00 80 1015.5
20260507080005 50 145 2.0 5.0 0.00 0.01 0.00 80 1015.5
20260507075504 50 137 2.0 5.0 0.00 0.01 0.00 80 1015.3
20260507075003 50 145 2.0 5.0 0.00 0.01 0.00 81 1015.3
20260507074503 49 162 2.0 5.0 0.00 0.01 0.00 82 1015.3
20260507074003 49 157 2.0 6.0 0.00 0.01 0.00 83 1015.3
20260507073505 49 162 2.0 6.0 0.00 0.01 0.00 84 1015.3
20260507073003 49 168 2.0 5.0 0.00 0.01 0.00 85 1015.3
20260507072504 49 139 1.0 3.0 0.00 0.01 0.00 86 1015.2
20260507072004 49 96 1.0 3.0 0.00 0.01 0.00 86 1015.2
20260507071504 48 87 2.0 5.0 0.00 0.01 0.00 87 1015.2
20260507071004 48 85 2.0 5.0 0.00 0.01 0.00 87 1015.2
20260507070717 48 87 2.0 5.0 0.00 0.01 0.00 88 1015.2
20260507070006 48 103 2.0 4.0 0.00 0.01 0.00 89 1015.2
20260507065712 48 110 1.0 4.0 0.00 0.01 0.00 89 1015.2
20260507065004 47 106 1.0 3.0 0.00 0.01 0.00 89 1015.2
20260507064504 47 121 2.0 5.0 0.00 0.01 0.00 90 1015.2
20260507064003 47 129 2.0 5.0 0.00 0.01 0.00 90 1015.1
20260507063503 47 123 2.0 5.0 0.00 0.01 0.00 91 1015.1
20260507063004 47 137 1.0 5.0 0.00 0.01 0.00 92 1015.1
20260507062504 47 124 1.0 5.0 0.00 0.01 0.00 92 1015.0
20260507062004 47 100 1.0 5.0 0.00 0.01 0.00 92 1015.0
20260507061503 46 86 1.0 5.0 0.00 0.01 0.00 92 1015.0
20260507061003 46 46 1.0 3.0 0.00 0.01 0.00 93 1015.0
20260507060504 46 10 1.0 3.0 0.00 0.01 0.00 93 1015.0
20260507060004 45 1 1.0 3.0 0.00 0.01 0.00 93 1015.0
20260507055503 44 1 1.0 3.0 0.00 0.01 0.00 93 1014.9
20260507055004 44 1 1.0 3.0 0.00 0.01 0.00 92 1014.9
20260507054504 44 1 1.0 3.0 0.00 0.01 0.00 92 1014.9
20260507054004 43 10 2.0 3.0 0.00 0.01 0.00 92 1014.9
20260507053503 43 43 1.0 3.0 0.00 0.01 0.00 92 1014.9
20260507053218 43 74 1.0 2.0 0.00 0.01 0.00 92 1014.9
20260507052503 43 95 1.0 2.0 0.00 0.01 0.00 91 1014.8
20260507052003 43 95 0.0 2.0 0.00 0.01 0.00 91 1014.8
20260507051503 43 0 0.0 0.0 0.00 0.01 0.00 91 1014.8
20260507051004 43 0 0.0 0.0 0.00 0.01 0.00 91 1014.7
20260507050504 43 0 0.0 0.0 0.00 0.01 0.00 91 1014.7
20260507050005 44 0 0.0 0.0 0.00 0.01 0.00 91 1014.7
20260507045504 44 0 0.0 0.0 0.00 0.01 0.00 91 1014.7
20260507045005 44 0 0.0 0.0 0.00 0.01 0.00 91 1014.7
20260507044715 44 0 0.0 0.0 0.00 0.01 0.00 91 1014.7
20260507044213 44 0 0.0 0.0 0.00 0.01 0.00 91 1014.7
20260507043716 44 0 0.0 0.0 0.00 0.01 0.00 91 1014.7
20260507043003 45 0 0.0 1.0 0.00 0.01 0.00 91 1014.7
20260507042503 45 95 0.0 1.0 0.00 0.01 0.00 91 1014.6
20260507042003 45 95 0.0 2.0 0.00 0.01 0.00 91 1014.6
20260507041504 45 95 1.0 2.0 0.00 0.01 0.00 91 1014.6
20260507041003 46 91 1.0 2.0 0.00 0.01 0.00 91 1014.6
20260507040713 46 88 1.0 2.0 0.00 0.01 0.00 91 1014.6
20260507040217 46 82 1.0 3.0 0.00 0.01 0.00 91 1014.6
20260507035504 46 81 1.0 2.0 0.00 0.01 0.00 91 1014.6
20260507035212 46 79 1.0 4.0 0.00 0.01 0.00 91 1014.6
20260507034504 46 80 2.0 4.0 0.00 0.01 0.00 91 1014.6
20260507034004 46 78 2.0 4.0 0.00 0.01 0.00 91 1014.5
20260507033504 46 77 3.0 5.0 0.00 0.01 0.00 91 1014.5
20260507033004 46 78 2.0 5.0 0.00 0.01 0.00 91 1014.5
20260507032503 46 76 2.0 3.0 0.00 0.01 0.00 91 1014.6
20260507032004 46 74 2.0 5.0 0.00 0.01 0.00 91 1014.6
20260507031504 46 75 1.0 5.0 0.00 0.01 0.00 91 1014.6
20260507031005 46 76 1.0 3.0 0.00 0.01 0.00 91 1014.5
20260507030504 46 79 2.0 4.0 0.00 0.01 0.00 91 1014.5
20260507030004 46 77 2.0 5.0 0.00 0.01 0.00 91 1014.5
20260507025503 46 72 2.0 5.0 0.00 0.01 0.00 91 1014.4
20260507025213 46 70 2.0 4.0 0.00 0.01 0.00 91 1014.4
20260507024503 46 72 2.0 6.0 0.00 0.01 0.00 91 1014.4
20260507024003 46 75 2.0 6.0 0.00 0.01 0.00 91 1014.4
20260507023505 46 81 2.0 5.0 0.00 0.01 0.00 91 1014.4
20260507023003 46 74 3.0 9.0 0.00 0.01 0.00 91 1014.4
20260507022713 46 70 3.0 9.0 0.00 0.01 0.00 91 1014.4
20260507022003 46 59 2.0 5.0 0.00 0.01 0.00 91 1014.4
20260507021503 46 54 2.0 6.0 0.00 0.01 0.00 90 1014.4
20260507021003 46 44 2.0 6.0 0.00 0.01 0.00 90 1014.2
20260507020715 46 48 2.0 6.0 0.00 0.01 0.00 90 1014.2
20260507020004 47 46 2.0 6.0 0.00 0.01 0.00 90 1014.2
20260507015503 47 33 2.0 6.0 0.00 0.01 0.00 90 1014.2
20260507015006 47 30 2.0 6.0 0.00 0.01 0.00 91 1014.2
20260507014503 47 32 2.0 5.0 0.00 0.01 0.00 90 1014.2
20260507014214 47 34 2.0 4.0 0.00 0.01 0.00 90 1014.2
20260507013504 47 30 2.0 5.0 0.00 0.01 0.00 90 1014.2
20260507013003 47 23 2.0 5.0 0.00 0.01 0.00 90 1014.2
20260507012718 47 16 2.0 6.0 0.00 0.01 0.00 90 1014.2
20260507012004 47 7 2.0 6.0 0.00 0.01 0.00 90 1014.2
20260507011503 47 5 3.0 6.0 0.00 0.01 0.00 90 1014.2
20260507011003 46 5 2.0 6.0 0.00 0.01 0.00 90 1014.3
20260507010715 46 3 2.0 6.0 0.00 0.01 0.00 90 1014.3
20260507010004 46 341 2.0 6.0 0.00 0.01 0.00 90 1014.3
20260507005504 46 325 3.0 6.0 0.00 0.01 0.00 90 1014.4
20260507005003 46 319 3.0 6.0 0.00 0.01 0.00 90 1014.4
20260507004717 46 320 3.0 5.0 0.00 0.01 0.00 90 1014.4
20260507004215 46 320 3.0 6.0 0.00 0.01 0.00 90 1014.4
20260507003503 46 319 3.0 6.0 0.00 0.01 0.00 90 1014.4
20260507003003 46 315 3.0 6.0 0.00 0.01 0.00 89 1014.4
20260507002503 46 320 4.0 7.0 0.00 0.01 0.00 89 1014.3
20260507002003 46 324 5.0 9.0 0.00 0.01 0.00 89 1014.3
20260507001503 46 324 4.0 9.0 0.00 0.01 0.00 89 1014.3
20260507001213 46 320 4.0 7.0 0.00 0.01 0.00 89 1014.4
20260507000503 46 321 3.0 6.0 0.00 0.01 0.00 89 1014.4
20260507000015 46 313 3.0 7.0 0.00 0.01 0.00 89 1014.4
20260506235717 46 311 3.0 7.0 0.00 0.01 0.01 89 1014.4
20260506235003 46 321 3.0 9.0 0.00 0.01 0.01 89 1014.4
20260506234505 46 318 3.0 9.0 0.00 0.01 0.01 89 1014.4
20260506234005 46 322 3.0 6.0 0.00 0.01 0.01 89 1014.4
20260506233503 46 323 3.0 7.0 0.00 0.01 0.01 89 1014.4
20260506233217 46 322 3.0 7.0 0.00 0.01 0.01 89 1014.4
20260506232504 46 321 3.0 6.0 0.00 0.01 0.01 89 1014.4
20260506232003 46 325 3.0 6.0 0.00 0.01 0.01 89 1014.4
20260506231504 47 324 4.0 7.0 0.00 0.01 0.01 89 1014.4
20260506231004 47 322 3.0 7.0 0.00 0.01 0.01 89 1014.3
20260506230503 47 326 2.0 5.0 0.00 0.01 0.01 89 1014.3
20260506230003 47 334 2.0 5.0 0.00 0.01 0.01 89 1014.3
20260506225503 47 337 3.0 5.0 0.00 0.01 0.01 89 1014.3
20260506225215 47 343 3.0 6.0 0.00 0.01 0.01 89 1014.3
20260506224503 47 352 3.0 6.0 0.00 0.01 0.01 88 1014.3
20260506224003 47 346 3.0 6.0 0.00 0.01 0.01 88 1014.2
20260506223714 47 344 3.0 6.0 0.00 0.01 0.01 88 1014.2
20260506223003 47 355 3.0 7.0 0.00 0.01 0.01 88 1014.2
20260506222503 47 353 3.0 7.0 0.00 0.01 0.01 88 1014.3
20260506222005 47 348 3.0 6.0 0.00 0.01 0.01 88 1014.3
20260506221505 47 350 3.0 6.0 0.00 0.01 0.01 88 1014.3
20260506221003 47 352 3.0 6.0 0.00 0.01 0.01 88 1014.3
20260506220504 47 351 3.0 6.0 0.00 0.01 0.01 88 1014.3
20260506220003 47 349 3.0 6.0 0.00 0.01 0.01 88 1014.3
20260506215503 47 353 3.0 6.0 0.00 0.01 0.01 87 1014.2
20260506215003 47 354 3.0 7.0 0.00 0.01 0.01 87 1014.2
20260506214714 47 353 3.0 7.0 0.00 0.01 0.01 87 1014.2
20260506214217 47 357 3.0 6.0 0.00 0.01 0.01 87 1014.2
20260506213715 47 356 3.0 7.0 0.00 0.01 0.01 87 1014.2
20260506213005 47 356 5.0 9.0 0.00 0.01 0.01 87 1014.2
20260506212504 47 355 5.0 9.0 0.00 0.01 0.01 87 1014.2
20260506212003 47 353 4.0 7.0 0.00 0.01 0.01 86 1014.2
20260506211717 47 352 4.0 7.0 0.00 0.01 0.01 86 1014.2
20260506211003 47 351 5.0 9.0 0.00 0.01 0.01 86 1014.1
20260506210504 47 351 6.0 9.0 0.00 0.01 0.01 86 1014.1
20260506210003 47 353 5.0 9.0 0.00 0.01 0.01 86 1014.1
20260506205503 47 356 5.0 9.0 0.00 0.01 0.01 86 1014.0
20260506205003 47 356 5.0 9.0 0.00 0.01 0.01 85 1014.0
20260506204504 48 359 4.0 9.0 0.00 0.01 0.01 85 1014.0
20260506204213 48 360 4.0 9.0 0.00 0.01 0.01 85 1013.8
20260506203503 48 360 4.0 9.0 0.00 0.01 0.01 85 1013.8
20260506203004 48 7 4.0 9.0 0.00 0.01 0.01 84 1013.8
20260506202503 48 7 5.0 11.0 0.00 0.01 0.01 84 1013.7
20260506202215 48 5 5.0 12.0 0.00 0.01 0.01 84 1013.7
20260506201504 48 5 6.0 13.0 0.00 0.01 0.01 83 1013.7
20260506201004 48 2 6.0 13.0 0.00 0.01 0.01 83 1013.6
20260506200504 48 2 6.0 13.0 0.00 0.01 0.01 83 1013.6
20260506200003 48 4 5.0 12.0 0.00 0.01 0.01 83 1013.6
20260506195503 48 7 4.0 10.0 0.00 0.01 0.01 82 1013.6
20260506195003 48 5 5.0 11.0 0.00 0.01 0.01 82 1013.6
20260506194503 48 1 6.0 11.0 0.00 0.01 0.01 81 1013.6
20260506194003 48 1 7.0 13.0 0.00 0.01 0.01 81 1013.6
20260506193503 49 359 8.0 13.0 0.00 0.01 0.01 80 1013.6
20260506193003 49 359 8.0 13.0 0.00 0.01 0.01 80 1013.6
20260506192503 49 360 7.0 13.0 0.00 0.01 0.01 79 1013.5
20260506192215 49 359 7.0 14.0 0.00 0.01 0.01 78 1013.5
20260506191504 50 359 8.0 14.0 0.00 0.01 0.01 77 1013.5
20260506191003 50 2 7.0 14.0 0.00 0.01 0.01 77 1013.3
20260506190504 50 7 6.0 14.0 0.00 0.01 0.01 76 1013.3
20260506190217 50 4 6.0 13.0 0.00 0.01 0.01 75 1013.3
20260506185505 51 7 6.0 13.0 0.00 0.01 0.01 74 1013.3
20260506185218 51 12 6.0 13.0 0.00 0.01 0.01 74 1013.3
20260506184504 51 360 7.0 14.0 0.00 0.01 0.01 73 1013.3
20260506184214 51 358 7.0 14.0 0.00 0.01 0.01 73 1013.1
20260506183504 52 16 6.0 13.0 0.00 0.01 0.01 72 1013.1
20260506183005 52 16 6.0 13.0 0.00 0.01 0.01 71 1013.1
20260506182713 52 16 6.0 13.0 0.00 0.01 0.01 71 1013.0
20260506182216 52 7 6.0 13.0 0.00 0.01 0.01 71 1013.0
20260506181503 52 1 7.0 15.0 0.00 0.01 0.01 71 1013.0
20260506181004 52 2 6.0 15.0 0.00 0.01 0.01 71 1012.8
20260506180504 52 8 6.0 12.0 0.00 0.01 0.01 70 1012.8
20260506180005 52 7 7.0 15.0 0.00 0.01 0.01 69 1012.8
20260506175503 53 360 7.0 15.0 0.00 0.01 0.01 69 1012.6
20260506175004 53 356 8.0 14.0 0.00 0.01 0.01 68 1012.6
20260506174717 53 358 7.0 14.0 0.00 0.01 0.01 68 1012.6
20260506174214 53 5 6.0 14.0 0.00 0.01 0.01 67 1012.5
20260506173504 54 5 7.0 15.0 0.00 0.01 0.01 66 1012.5
20260506173004 54 1 7.0 15.0 0.00 0.01 0.01 66 1012.5
20260506172503 54 1 6.0 14.0 0.00 0.01 0.01 66 1012.4
20260506172004 54 360 5.0 13.0 0.00 0.01 0.01 67 1012.4
20260506171504 53 8 5.0 13.0 0.00 0.01 0.01 67 1012.4
20260506171004 53 22 5.0 12.0 0.00 0.01 0.01 67 1012.5
20260506170504 53 27 5.0 12.0 0.00 0.01 0.01 66 1012.5
20260506170003 54 16 5.0 10.0 0.00 0.01 0.01 65 1012.5
20260506165716 54 20 5.0 11.0 0.00 0.01 0.01 65 1012.4
20260506165003 54 25 4.0 11.0 0.00 0.01 0.01 65 1012.4
20260506164717 54 22 4.0 12.0 0.00 0.01 0.01 64 1012.4
20260506164004 54 23 5.0 12.0 0.00 0.01 0.01 64 1012.3
20260506163503 54 23 6.0 12.0 0.00 0.01 0.01 63 1012.3
20260506163216 54 16 6.0 14.0 0.00 0.01 0.01 63 1012.3
20260506162503 54 6 7.0 14.0 0.00 0.01 0.01 62 1012.2
20260506162004 54 357 7.0 15.0 0.00 0.01 0.01 62 1012.2
20260506161504 54 351 8.0 15.0 0.00 0.01 0.01 61 1012.2
20260506161003 54 344 7.0 14.0 0.00 0.01 0.01 61 1012.3
20260506160716 54 340 8.0 15.0 0.00 0.01 0.01 60 1012.3
20260506160003 55 341 7.0 15.0 0.00 0.01 0.01 60 1012.3
20260506155504 55 345 7.0 15.0 0.00 0.01 0.01 60 1012.4
20260506155003 55 349 7.0 15.0 0.00 0.01 0.01 60 1012.4
20260506154503 55 349 7.0 15.0 0.00 0.01 0.01 58 1012.4
20260506154216 55 350 7.0 15.0 0.00 0.01 0.01 58 1012.4
20260506153503 55 358 8.0 14.0 0.00 0.01 0.01 57 1012.4
20260506153217 55 1 7.0 14.0 0.00 0.01 0.01 57 1012.4
20260506152504 55 2 6.0 14.0 0.00 0.01 0.01 58 1012.3
20260506152003 55 351 7.0 14.0 0.00 0.01 0.01 57 1012.3
20260506151503 56 340 7.0 12.0 0.00 0.01 0.01 56 1012.3
20260506151219 56 336 6.0 12.0 0.00 0.01 0.01 56 1012.2
20260506150503 55 346 7.0 14.0 0.00 0.01 0.01 56 1012.2
20260506150004 56 344 7.0 14.0 0.00 0.01 0.01 56 1012.2
20260506145504 56 334 7.0 13.0 0.00 0.01 0.01 56 1012.2
20260506145215 56 330 7.0 13.0 0.00 0.01 0.01 56 1012.2
20260506144503 56 348 7.0 12.0 0.00 0.01 0.01 56 1012.2
20260506144216 56 352 6.0 12.0 0.00 0.01 0.01 55 1012.2
20260506143503 56 349 7.0 13.0 0.00 0.01 0.01 56 1012.2
20260506143003 56 3 6.0 13.0 0.00 0.01 0.01 57 1012.2
20260506142715 56 5 5.0 12.0 0.00 0.01 0.01 59 1012.1
20260506142218 56 360 5.0 11.0 0.00 0.01 0.01 58 1012.1
20260506141504 55 354 6.0 12.0 0.00 0.01 0.01 60 1012.1
20260506141004 55 357 6.0 13.0 0.00 0.01 0.01 60 1012.3
20260506140503 55 355 7.0 13.0 0.00 0.01 0.01 60 1012.3
20260506140004 55 356 6.0 12.0 0.00 0.01 0.01 60 1012.3
20260506135504 55 2 5.0 12.0 0.00 0.01 0.01 59 1012.5
20260506135004 55 10 5.0 12.0 0.00 0.01 0.01 61 1012.5
20260506134503 54 14 6.0 12.0 0.00 0.01 0.01 61 1012.5
20260506134005 54 22 5.0 12.0 0.00 0.01 0.01 62 1012.5
20260506133503 54 22 5.0 12.0 0.00 0.01 0.01 62 1012.5
20260506133003 54 14 6.0 13.0 0.00 0.01 0.01 63 1012.5
20260506132503 53 6 7.0 13.0 0.00 0.01 0.01 64 1012.5
20260506132005 53 359 7.0 17.0 0.00 0.01 0.01 64 1012.5
20260506131717 54 358 7.0 17.0 0.00 0.01 0.01 65 1012.5
20260506131003 54 20 4.0 12.0 0.00 0.01 0.01 66 1012.6
20260506130503 54 9 5.0 11.0 0.00 0.01 0.01 66 1012.6
20260506130005 54 357 7.0 12.0 0.00 0.01 0.01 65 1012.6
20260506125504 54 355 8.0 14.0 0.00 0.01 0.01 66 1012.6
20260506125003 54 1 7.0 14.0 0.00 0.01 0.01 65 1012.6
20260506124715 54 3 7.0 14.0 0.00 0.01 0.01 67 1012.6
20260506124004 53 6 6.0 13.0 0.00 0.01 0.01 67 1012.6
20260506123504 52 13 6.0 15.0 0.00 0.01 0.01 70 1012.6
20260506123003 52 16 5.0 15.0 0.00 0.01 0.01 71 1012.6
20260506122503 51 7 5.0 12.0 0.00 0.01 0.01 74 1012.7
20260506122003 51 359 6.0 12.0 0.01 0.01 0.01 75 1012.7
20260506121503 50 358 5.0 12.0 0.01 0.01 0.01 77 1012.7
20260506121003 51 8 5.0 12.0 0.01 0.01 0.01 79 1012.7
20260506120503 51 19 5.0 12.0 0.01 0.01 0.01 78 1012.7
20260506120003 51 16 4.0 12.0 0.01 0.01 0.01 79 1012.7
20260506115715 51 20 4.0 12.0 0.01 0.01 0.01 80 1012.7
20260506115212 52 34 3.0 7.0 0.01 0.01 0.01 81 1012.7
20260506114504 51 32 3.0 10.0 0.01 0.01 0.01 82 1012.7
20260506114003 51 33 3.0 7.0 0.01 0.01 0.01 82 1012.8
20260506113504 50 25 3.0 7.0 0.01 0.01 0.01 83 1012.8
20260506113003 50 10 4.0 9.0 0.01 0.01 0.01 82 1012.8
20260506112503 50 12 6.0 13.0 0.01 0.01 0.01 80 1012.9
20260506112004 50 14 7.0 13.0 0.00 0.00 0.00 78 1012.9
20260506111503 50 15 6.0 12.0 0.00 0.00 0.00 77 1012.9
20260506111003 50 18 4.0 11.0 0.00 0.00 0.00 77 1012.7
20260506110503 50 11 3.0 9.0 0.00 0.00 0.00 77 1012.7
20260506110003 50 2 5.0 13.0 0.00 0.00 0.00 76 1012.7
20260506105504 50 355 7.0 15.0 0.00 0.00 0.00 75 1012.7
20260506105004 50 354 6.0 15.0 0.00 0.00 0.00 74 1012.7
20260506104503 50 353 6.0 15.0 0.00 0.00 0.00 74 1012.7
20260506104003 50 352 7.0 13.0 0.00 0.00 0.00 73 1012.8
20260506103503 50 355 6.0 13.0 0.00 0.00 0.00 73 1012.8
20260506103004 50 352 5.0 11.0 0.00 0.00 0.00 74 1012.8
20260506102503 50 351 6.0 13.0 0.00 0.00 0.00 74 1012.8
20260506102003 50 2 6.0 13.0 0.00 0.00 0.00 74 1012.8
20260506101503 50 12 6.0 12.0 0.00 0.00 0.00 75 1012.8
20260506101003 50 8 7.0 12.0 0.00 0.00 0.00 76 1012.8
20260506100504 50 8 7.0 13.0 0.00 0.00 0.00 76 1012.8
20260506100005 50 10 5.0 13.0 0.00 0.00 0.00 77 1012.8
20260506095505 50 8 6.0 12.0 0.00 0.00 0.00 78 1012.8
20260506095004 50 13 7.0 14.0 0.00 0.00 0.00 76 1012.8
20260506094503 50 8 8.0 15.0 0.00 0.00 0.00 73 1012.8
20260506094004 50 2 8.0 17.0 0.00 0.00 0.00 73 1012.8
20260506093718 50 1 8.0 17.0 0.00 0.00 0.00 73 1012.8
20260506093004 50 359 10.0 18.0 0.00 0.00 0.00 71 1012.8
20260506092713 50 358 9.0 18.0 0.00 0.00 0.00 71 1012.6
20260506092003 51 353 7.0 13.0 0.00 0.00 0.00 70 1012.6
20260506091504 51 351 8.0 18.0 0.00 0.00 0.00 70 1012.6
20260506091003 52 357 10.0 20.0 0.00 0.00 0.00 70 1012.6
20260506090503 51 360 10.0 20.0 0.00 0.00 0.00 69 1012.6